Powrót do katalogu

KUIPER-00229

AktywnyŁącznośćLEO
NORAD 68578·PAYLOAD·🇺🇸 United States

Wystrzelony Apr 4, 2026 z Cape Canaveral Space Force Station

Loading…

Następne Przeloty (najbliższe 24 godziny)

TLE

ŚwieżeSource: CelesTrak SupGP

Epoka: Sep 14, 2026, 15:30 UTC

1 68578C 26072F   26257.64628472  .00004996  00000+0  65421-3 0  2577
2 68578  51.9000 160.0675 0000730  97.2325 147.1716 14.79915978    12

Śledź KUIPER-00229 w czasie rzeczywistym z AllMySat

Download on the App Store